Regional Weather Roundup
Issued by NWS

Home | Current Version | Previous Version | Text Only | Print | Product List | Glossary Off
Versions: 1 2 3 4 5 6 7 8 9 10 11 12 13 14 15 16 17 18 19 20 21 22 23 24 25 26 27 28

000
ASUS45 KCYS 270810
RWRWY

WYOMING REGIONAL WEATHER ROUNDUP
NATIONAL WEATHER SERVICE CHEYENNE WY
200 AM MDT MON MAR 27 2017

NOTE:  "FAIR" INDICATES FEW OR NO CLOUDS BELOW 12,000 FEET
WITH NO SIGNIFICANT WEATHER AND/OR OBSTRUCTIONS TO VISIBILITY.

WYZ001-270900-
YELLOWSTONE NATIONAL PARK

CITY           SKY/WX    TMP DP  RH WIND       PRES   REMARKS
LK YELLOWSTONE   N/A     27  27 100 CALM      29.91F
W YELLOWSTONE  NOT AVBL

$$
WYZ002>013-054>058-071-098>099-270900-
NORTHERN WYOMING

CITY           SKY/WX    TMP DP  RH WIND       PRES   REMARKS
JACKSON        CLOUDY    34  32  93 SW10      29.93S WCI  26
CODY           CLOUDY    44  22  41 CALM      29.84F
GREYBULL       MOCLDY    46  30  53 NW6       29.80F
WORLAND        FAIR      42  38  85 CALM      29.81S
SHERIDAN       CLOUDY    41  35  79 NW6       29.81F
BUFFALO        FAIR      41  30  65 SE8       29.84F
GILLETTE       FAIR      39  34  82 S9        29.86F WCI  33
HULETT         FAIR      34  30  86 S5        29.88F WCI  30
NEWCASTLE      CLOUDY    36  36 100 SE6       29.93S WCI  31

$$
WYZ014>020-022>026-101>103-270900-
CENTRAL WYOMING

CITY           SKY/WX    TMP DP  RH WIND       PRES   REMARKS
BIG PINEY      CLOUDY    31  25  78 CALM      29.96S
PINEDALE       CLOUDY    28  25  86 NW3       29.96F
DUBOIS         CLOUDY    32  21  64 N9G18     29.88F WCI  24
LANDER         FAIR      40  20  44 VRB3      29.85F
RIVERTON       FAIR      38  23  55 NW13      29.86S WCI  30
CASPER         FAIR      33  30  88 SW9       29.87F WCI  25
DOUGLAS        FAIR      37  34  89 SE9       29.90F WCI  30

$$
WYZ021-027>030-104>119-270900-
SOUTHERN WYOMING

CITY           SKY/WX    TMP DP  RH WIND       PRES   REMARKS
EVANSTON       CLOUDY    34  24  67 SW8       29.95S WCI  27
KEMMERER         N/A     32  27  80 SE6       29.96S WCI  26
ROCK SPRINGS   CLOUDY    37  26  64 SW7       29.96F WCI  32
DIXON            N/A     33  27  78 CALM      30.00S
RAWLINS        MOCLDY    33  23  66 SW7       29.95F WCI  27
SARATOGA       FAIR      30  25  80 CALM      29.97S
LARAMIE        FAIR      27  25  92 S10       29.94F WCI  17
CHEYENNE       FAIR      33  31  92 W8        29.94F WCI  26
TORRINGTON     FAIR      29  28  96 E8        29.92F WCI  21
PINE BLUFFS    FAIR      27  27 100 SW6       29.95F WCI  20

$$




USA.gov is the U.S. government's official web portal to all federal, state and local government web resources and services.